Weather History for Fernandina Beach, FL

Change the Weather History Date:

Sunday, September 15, 2013

  Actual Average (KJAX) Record (KJAX)
Temperature  
Mean Temperature 80 °F 78 °F  
Max Temperature 87 °F 87 °F 96 °F (1972)
Min Temperature 73 °F 70 °F 62 °F (1996)
Degree Days  
Heating Degree Days 0 0  
Month to date heating degree days 0  
Since 1 July heating degree days 0  
Cooling Degree Days 15 14  
Month to date cooling degree days 220  
Year to date cooling degree days 2210  
Growing Degree Days 30 (Base 50)    
Moisture  
Dew Point 78 °F    
Average Humidity 89    
Maximum Humidity 100    
Minimum Humidity 75    
Precipitation  
Precipitation 0.00 in 0.29 in 3.85 in (1954)
Month to date precipitation 4.25  
Year to date precipitation 39.61  
Snow  
Snow 0.00 in 0.00 in 0.00 in (2002)
Month to date snowfall 0.0  
Since 1 July snowfall 0.0  
Since 1 September snowfall 0.0  
Snow Depth -    
Sea Level Pressure  
Sea Level Pressure 30.05 in    
Wind  
Wind Speed 3 mph (ESE)    
Max Wind Speed 12 mph    
Max Gust Speed -    
Visibility 9 miles    
Events Thunderstorm    
T = Trace of Precipitation, MM = Missing Value Source: NWS Daily Summary

Daily Weather History Graph

Daily Weather History Graph

Search for Another Location

Airport:

Trip Planner

Search our weather history database for the weather conditions in past years. The results will help you decide how hot, cold, wet, or windy it might be!

Date:

Astronomy

Sep. 15, 2013 Rise Set
Actual Time 7:10 AM EDT 7:31 PM EDT
Civil Twilight 6:46 AM EDT 7:55 PM EDT
Nautical Twilight 6:17 AM EDT 8:23 PM EDT
Astronomical Twilight 5:49 AM EDT 8:51 PM EDT
Moon 4:45 PM EDT (9/15) 3:00 AM EDT (9/15)
Length of Visible Light 13h 08m
Length of Day
12h 20m
Waxing Gibbous, 82% of the Moon is Illuminated
Sep 15
Waxing Gibbous
Sep 19
Full
Sep 26
Last Quarter
Oct 4
New
Oct 11
First Quarter

Hourly Weather History & Observations

Time (EDT) Temp. Heat Index Dew Point Humidity Pressure Visibility Wind Dir Wind Speed Gust Speed Precip Events Conditions
12:15 AM 80.6 °F 88.1 °F 78.8 °F 94% 30.00 in 10.0 mi Calm Calm - N/A   Mostly Cloudy
12:35 AM 80.6 °F 88.1 °F 78.8 °F 94% 30.00 in 10.0 mi Calm Calm - N/A   Mostly Cloudy
12:55 AM 78.8 °F - 78.8 °F 100% 30.00 in 10.0 mi Calm Calm - N/A   Mostly Cloudy
1:15 AM 78.8 °F - 78.8 °F 100% 29.99 in 10.0 mi SSW 3.5 mph - N/A   Mostly Cloudy
1:35 AM 78.8 °F - 77.0 °F 94% 30.00 in 10.0 mi Calm Calm - N/A   Mostly Cloudy
1:55 AM 78.8 °F - 77.0 °F 94% 29.99 in 10.0 mi Calm Calm - N/A   Scattered Clouds
2:15 AM 77.0 °F - 77.0 °F 100% 29.99 in 10.0 mi Calm Calm - N/A   Clear
2:35 AM 77.0 °F - 77.0 °F 100% 29.99 in 10.0 mi Calm Calm - N/A   Clear
2:55 AM 77.0 °F - 77.0 °F 100% 30.00 in 10.0 mi Calm Calm - N/A   Clear
3:15 AM 75.2 °F - 75.2 °F 100% 29.99 in 10.0 mi Calm Calm - N/A   Clear
3:35 AM 75.2 °F - 75.2 °F 100% 30.00 in 7.0 mi Calm Calm - N/A   Clear
3:55 AM 75.2 °F - 75.2 °F 100% 30.00 in 7.0 mi Calm Calm - N/A   Clear
4:15 AM 75.2 °F - 75.2 °F 100% 30.00 in 7.0 mi Calm Calm - N/A   Clear
4:35 AM 75.2 °F - 75.2 °F 100% 30.00 in 10.0 mi Calm Calm - N/A   Clear
4:55 AM 77.0 °F - 77.0 °F 100% 30.00 in 10.0 mi Calm Calm - N/A   Clear
5:15 AM 75.2 °F - 75.2 °F 100% 30.01 in 10.0 mi Calm Calm - N/A   Clear
5:35 AM 75.2 °F - 75.2 °F 100% 30.01 in 10.0 mi Calm Calm - N/A   Clear
5:55 AM 75.2 °F - 75.2 °F 100% 30.01 in 7.0 mi Calm Calm - N/A Thunderstorm Clear
6:15 AM 75.2 °F - 75.2 °F 100% 30.02 in 7.0 mi Calm Calm - N/A   Clear
6:35 AM 73.4 °F - 73.4 °F 100% 30.02 in 7.0 mi Calm Calm - N/A   Clear
6:55 AM 73.4 °F - 73.4 °F 100% 30.03 in 7.0 mi Calm Calm - N/A Thunderstorm Clear
7:15 AM 75.2 °F - 75.2 °F 100% 30.04 in 5.0 mi Calm Calm - N/A   Clear
7:35 AM 73.4 °F - 73.4 °F 100% 30.04 in 5.0 mi Calm Calm - N/A   Clear
7:55 AM 75.2 °F - 75.2 °F 100% 30.05 in 7.0 mi Calm Calm - N/A   Clear
8:15 AM 77.0 °F - 77.0 °F 100% 30.05 in 5.0 mi Calm Calm - N/A   Clear
8:35 AM 78.8 °F - 78.8 °F 100% 30.05 in 7.0 mi Calm Calm - N/A   Clear
8:55 AM 80.6 °F 88.1 °F 78.8 °F 94% 30.06 in 7.0 mi Calm Calm - N/A   Clear
9:15 AM 84.2 °F 98.3 °F 80.6 °F 89% 30.06 in 10.0 mi East 3.5 mph - N/A   Scattered Clouds
9:35 AM 84.2 °F 98.3 °F 80.6 °F 89% 30.07 in 10.0 mi SE 4.6 mph - N/A   Clear
9:55 AM 84.2 °F 98.3 °F 80.6 °F 89% 30.07 in 10.0 mi ESE 3.5 mph - N/A   Clear
10:15 AM 86.0 °F 101.9 °F 80.6 °F 84% 30.08 in 10.0 mi ESE 3.5 mph - N/A   Scattered Clouds
10:35 AM 86.0 °F 104.7 °F 82.4 °F 89% 30.08 in 10.0 mi ESE 5.8 mph - N/A   Scattered Clouds
10:55 AM 86.0 °F 101.9 °F 80.6 °F 84% 30.08 in 10.0 mi East 4.6 mph - N/A   Scattered Clouds
11:15 AM 86.0 °F 101.9 °F 80.6 °F 84% 30.08 in 10.0 mi East 5.8 mph - N/A   Scattered Clouds
11:35 AM 87.8 °F 104.9 °F 80.6 °F 79% 30.08 in 10.0 mi ENE 4.6 mph - N/A   Clear
11:55 AM 87.8 °F 104.9 °F 80.6 °F 79% 30.08 in 10.0 mi ENE 4.6 mph - N/A   Scattered Clouds
12:15 PM 87.8 °F 104.9 °F 80.6 °F 79% 30.08 in 10.0 mi East 9.2 mph - N/A   Clear
12:35 PM 87.8 °F 104.9 °F 80.6 °F 79% 30.08 in 10.0 mi East 8.1 mph - N/A   Clear
12:55 PM 87.8 °F 104.9 °F 80.6 °F 79% 30.08 in 10.0 mi East 6.9 mph - N/A   Clear
1:15 PM 87.8 °F 104.9 °F 80.6 °F 79% 30.08 in 10.0 mi East 10.4 mph - N/A   Clear
1:35 PM 87.8 °F 104.9 °F 80.6 °F 79% 30.08 in 10.0 mi ESE 9.2 mph - N/A   Clear
1:55 PM 87.8 °F 102.5 °F 78.8 °F 75% 30.08 in 10.0 mi SE 8.1 mph - N/A   Clear
2:15 PM 87.8 °F 104.9 °F 80.6 °F 79% 30.08 in 10.0 mi SE 11.5 mph - N/A   Clear
2:35 PM 87.8 °F 102.5 °F 78.8 °F 75% 30.07 in 10.0 mi ESE 10.4 mph - N/A   Clear
2:55 PM 87.8 °F 102.5 °F 78.8 °F 75% 30.07 in 10.0 mi SE 10.4 mph - N/A   Clear
3:15 PM 87.8 °F 104.9 °F 80.6 °F 79% 30.07 in 10.0 mi ESE 9.2 mph - N/A   Clear
3:35 PM 87.8 °F 104.9 °F 80.6 °F 79% 30.05 in 10.0 mi ESE 9.2 mph - N/A   Clear
3:55 PM 87.8 °F 104.9 °F 80.6 °F 79% 30.05 in 10.0 mi ESE 10.4 mph - N/A   Clear
4:15 PM 87.8 °F 104.9 °F 80.6 °F 79% 30.05 in 10.0 mi ESE 10.4 mph - N/A   Scattered Clouds
4:35 PM 87.8 °F 104.9 °F 80.6 °F 79% 30.05 in 10.0 mi East 8.1 mph - N/A   Clear
4:55 PM 87.8 °F 104.9 °F 80.6 °F 79% 30.04 in 10.0 mi ESE 10.4 mph - N/A   Clear
5:15 PM 87.8 °F 104.9 °F 80.6 °F 79% 30.05 in 10.0 mi ESE 8.1 mph - N/A   Scattered Clouds
5:35 PM 86.0 °F 101.9 °F 80.6 °F 84% 30.05 in 10.0 mi ESE 10.4 mph - N/A   Clear
5:55 PM 86.0 °F 101.9 °F 80.6 °F 84% 30.05 in 10.0 mi East 9.2 mph - N/A   Clear
6:15 PM 86.0 °F 99.3 °F 78.8 °F 79% 30.05 in 10.0 mi SE 9.2 mph - N/A   Clear
6:35 PM 86.0 °F 99.3 °F 78.8 °F 79% 30.05 in 10.0 mi ESE 6.9 mph - N/A   Clear
6:55 PM 84.2 °F 96.1 °F 78.8 °F 84% 30.05 in 10.0 mi SE 9.2 mph - N/A   Scattered Clouds
7:15 PM 84.2 °F 96.1 °F 78.8 °F 84% 30.06 in 10.0 mi SE 6.9 mph - N/A   Scattered Clouds
7:35 PM 82.4 °F 92.4 °F 78.8 °F 89% 30.06 in 10.0 mi ESE 4.6 mph - N/A   Scattered Clouds
7:55 PM 82.4 °F 92.4 °F 78.8 °F 89% 30.06 in 10.0 mi ESE 6.9 mph - N/A   Scattered Clouds
8:15 PM 82.4 °F 92.4 °F 78.8 °F 89% 30.07 in 10.0 mi ESE 6.9 mph - N/A   Scattered Clouds
8:35 PM 82.4 °F 92.4 °F 78.8 °F 89% 30.07 in 10.0 mi ESE 6.9 mph - N/A   Scattered Clouds
8:55 PM 82.4 °F 92.4 °F 78.8 °F 89% 30.08 in 10.0 mi East 6.9 mph - N/A   Clear
9:15 PM 82.4 °F 92.4 °F 78.8 °F 89% 30.08 in 10.0 mi ESE 5.8 mph - N/A   Scattered Clouds
9:35 PM 82.4 °F 92.4 °F 78.8 °F 89% 30.08 in 10.0 mi ESE 6.9 mph - N/A   Clear
9:55 PM 82.4 °F 92.4 °F 78.8 °F 89% 30.09 in 10.0 mi ESE 6.9 mph - N/A   Scattered Clouds
10:15 PM 82.4 °F 92.4 °F 78.8 °F 89% 30.09 in 10.0 mi SE 8.1 mph - N/A   Scattered Clouds
10:35 PM 82.4 °F 92.4 °F 78.8 °F 89% 30.10 in 10.0 mi ESE 6.9 mph - N/A   Scattered Clouds
10:55 PM 82.4 °F 92.4 °F 78.8 °F 89% 30.10 in 10.0 mi SE 8.1 mph - N/A   Clear
11:15 PM 82.4 °F 92.4 °F 78.8 °F 89% 30.10 in 10.0 mi SE 6.9 mph - N/A   Clear
11:35 PM 82.4 °F 92.4 °F 78.8 °F 89% 30.09 in 10.0 mi SE 8.1 mph - N/A   Scattered Clouds
11:55 PM 82.4 °F 92.4 °F 78.8 °F 89% 30.09 in 10.0 mi ESE 4.6 mph - N/A   Scattered Clouds